Istanbul, Turkey

1:27 AM +03 on March 29, 2017 (GMT +0300)
Istanbul

Weather History for 17060 - January, 2013

Change the Weather History Date:

Saturday, January 26, 2013

  Actual Average Record
Temperature  
Mean Temperature 44 °F -  
Max Temperature 48 °F 47 °F - ()
Min Temperature 41 °F 37 °F - ()
Degree Days  
Heating Degree Days 20    
Moisture  
Dew Point 43 °F    
Average Humidity 92    
Maximum Humidity 100    
Minimum Humidity 81    
Precipitation  
Precipitation 0.16 in - - ()
Sea Level Pressure  
Sea Level Pressure 29.71 in    
Wind  
Wind Speed 15 mph ()    
Max Wind Speed 25 mph    
Max Gust Speed 28 mph    
Visibility 5.0 miles    
Events Rain    
T = Trace of Precipitation, MM = Missing Value Source: Averaged Metar Reports

Daily Weather History Graph

Daily Weather History Graph

Search for Another Location

Airport or City:

Trip Planner

Search our weather history database for the weather conditions in past years. The results will help you decide how hot, cold, wet, or windy it might be!

Date:

Astronomy

Jan. 26, 2013 Rise Set
Actual Time 7:20 AM EET 5:14 PM EET
Civil Twilight 6:51 AM EET 5:43 PM EET
Nautical Twilight 6:17 AM EET 6:17 PM EET
Astronomical Twilight 5:45 AM EET 6:49 PM EET
Moon 4:50 PM EET (1/26) 6:26 AM EET (1/26)
Length of Visible Light 10h 52m
Length of Day
9h 53m
Waxing Gibbous, 99% of the Moon is Illuminated
Jan 26
Waxing Gibbous
Jan 27
Full
Feb 3
Last Quarter
Feb 10
New
Feb 17
First Quarter

Hourly Weather History & Observations

Time (EET) Temp. Windchill Dew Point Humidity Pressure Visibility Wind Dir Wind Speed Gust Speed Precip Events Conditions
12:20 AM 42.8 °F 34.5 °F 41.0 °F 93% 29.74 in 6.2 mi North 18.4 mph - N/A Rain Light Rain Showers
12:50 AM 42.8 °F 35.1 °F 41.0 °F 93% 29.77 in 6.2 mi NNE 16.1 mph - N/A Rain Light Rain Showers
1:20 AM 42.8 °F 34.8 °F 39.2 °F 87% 29.74 in 6.2 mi NNE 17.3 mph - N/A Rain Light Rain Showers
1:50 AM 44.6 °F 37.4 °F 39.2 °F 81% 29.74 in 6.2 mi NNE 16.1 mph 27.6 mph N/A Rain Light Rain Showers
2:00 AM 44 °F - 40 °F 82% 29.77 in 6 mi NNE 15.0 mph - - Rain Light Rain Showers
2:20 AM 42.8 °F 34.8 °F 41.0 °F 93% 29.74 in 6.2 mi NNE 17.3 mph - N/A Rain Light Rain Showers
2:50 AM 42.8 °F 35.1 °F 41.0 °F 93% 29.74 in 6.2 mi NNE 16.1 mph - N/A Rain Light Rain Showers
3:20 AM 42.8 °F 34.5 °F 41.0 °F 93% 29.74 in 6.2 mi NNE 18.4 mph - N/A Rain Light Rain Showers
3:50 AM 42.8 °F 35.4 °F 41.0 °F 93% 29.74 in 6.2 mi NNE 15.0 mph - N/A Rain Light Rain Showers
4:20 AM 42.8 °F 36.2 °F 41.0 °F 93% 29.74 in 6.2 mi NNE 12.7 mph - N/A Rain Light Rain Showers
4:50 AM 42.8 °F 35.1 °F 41.0 °F 93% 29.74 in 6.2 mi North 16.1 mph - N/A Rain Light Rain Showers
5:20 AM 42.8 °F 35.1 °F 42.8 °F 100% 29.71 in 6.2 mi NNE 16.1 mph 27.6 mph N/A Rain Light Rain Showers
5:50 AM 42.8 °F 35.1 °F 42.8 °F 100% 29.71 in 6.2 mi NE 16.1 mph - N/A Rain Light Rain Showers
6:20 AM 44.6 °F 38.1 °F 42.8 °F 93% 29.71 in 6.2 mi NE 13.8 mph - N/A Rain Light Rain Showers
6:50 AM 44.6 °F 38.1 °F 42.8 °F 93% 29.71 in 6.2 mi NNE 13.8 mph - N/A Rain Light Rain Showers
7:20 AM 44.6 °F 38.1 °F 41.0 °F 87% 29.71 in 6.2 mi NNE 13.8 mph - N/A   Mostly Cloudy
7:50 AM 44.6 °F 37.8 °F 42.8 °F 93% 29.71 in 6.2 mi NNE 15.0 mph - N/A   Mostly Cloudy
8:00 AM 44 °F - 42 °F 92% 29.72 in 6 mi NNE 15.0 mph - - Rain Light Rain Showers
8:20 AM 44.6 °F 38.1 °F 42.8 °F 93% 29.71 in 6.2 mi NE 13.8 mph - N/A   Mostly Cloudy
8:50 AM 44.6 °F 38.4 °F 42.8 °F 93% 29.71 in 6.2 mi NNE 12.7 mph - N/A   Mostly Cloudy
9:20 AM 44.6 °F 36.6 °F 44.6 °F 100% 29.68 in 6.2 mi NNE 19.6 mph - N/A   Mostly Cloudy
9:50 AM 44.6 °F 37.4 °F 42.8 °F 93% 29.68 in 3.7 mi NNE 16.1 mph - N/A Rain Light Rain Showers
10:20 AM 46.4 °F 40.1 °F 42.8 °F 87% 29.68 in 5.0 mi NNE 15.0 mph - N/A Rain Light Rain Showers
10:50 AM 46.4 °F 40.1 °F 44.6 °F 93% 29.68 in 3.7 mi NNE 15.0 mph - N/A Rain Light Rain Showers
11:20 AM 46.4 °F 39.8 °F 44.6 °F 93% 29.68 in 6.2 mi NNE 16.1 mph - N/A Rain Light Rain Showers
11:50 AM 46.4 °F 39.5 °F 42.8 °F 87% 29.68 in 5.0 mi NNE 17.3 mph - N/A Rain Light Rain Showers
12:20 PM 46.4 °F 40.1 °F 42.8 °F 87% 29.68 in 3.7 mi NNE 15.0 mph - N/A Rain Light Rain Showers
12:50 PM 46.4 °F 40.4 °F 44.6 °F 93% 29.68 in 5.0 mi NNE 13.8 mph - N/A Rain Light Rain Showers
1:20 PM 46.4 °F 40.1 °F 44.6 °F 93% 29.68 in 5.0 mi NNE 15.0 mph - N/A Rain Light Rain Showers
1:50 PM 46.4 °F 40.7 °F 42.8 °F 87% 29.68 in 5.0 mi NNE 12.7 mph - N/A Rain Light Rain Showers
2:00 PM 47 °F - 44 °F 85% 29.68 in 5 mi NNE 12.7 mph - - Rain Light Rain Showers
2:20 PM 46.4 °F 40.4 °F 42.8 °F 87% 29.68 in 5.0 mi NNE 13.8 mph - N/A   Mostly Cloudy
2:50 PM 46.4 °F 40.4 °F 44.6 °F 93% 29.68 in 3.7 mi North 13.8 mph - N/A Rain Light Rain Showers
3:20 PM 46.4 °F 41.1 °F 44.6 °F 93% 29.68 in 5.0 mi North 11.5 mph - N/A Rain Light Rain Showers
3:50 PM 46.4 °F 40.1 °F 44.6 °F 93% 29.68 in 3.7 mi NNE 15.0 mph - N/A Rain Light Rain Showers
4:20 PM 46.4 °F 40.1 °F 44.6 °F 93% 29.68 in 3.7 mi North 15.0 mph - N/A Rain Light Rain Showers
4:50 PM 46.4 °F 39.5 °F 44.6 °F 93% 29.65 in 4.3 mi North 17.3 mph - N/A   Mostly Cloudy
5:20 PM 46.4 °F 41.5 °F 44.6 °F 93% 29.68 in 4.3 mi NNE 10.4 mph - N/A   Mostly Cloudy
5:50 PM 46.4 °F 40.4 °F 42.8 °F 87% 29.68 in 3.7 mi North 13.8 mph - N/A Rain Light Rain Showers
6:20 PM 46.4 °F 41.9 °F 44.6 °F 93% 29.71 in 3.7 mi NNE 9.2 mph - N/A Rain Light Rain Showers
6:50 PM 48.2 °F - 44.6 °F 87% 29.71 in 3.7 mi North 9.2 mph - N/A Rain Light Rain Showers
7:20 PM 46.4 °F 39.8 °F 44.6 °F 93% 29.71 in 3.7 mi North 16.1 mph - N/A Rain Light Rain Showers
7:50 PM 46.4 °F 39.2 °F 46.4 °F 100% 29.71 in 3.7 mi North 18.4 mph - N/A Rain Light Rain Showers
8:00 PM 46 °F - 46 °F 97% 29.72 in 4 mi North 18.4 mph - - Rain Light Rain Showers
8:20 PM 46.4 °F 39.0 °F 44.6 °F 93% 29.71 in 3.7 mi North 19.6 mph - N/A Rain Light Rain Showers
8:50 PM 46.4 °F 39.2 °F 44.6 °F 93% 29.71 in 3.7 mi North 18.4 mph - N/A Rain Light Rain Showers
9:20 PM 44.6 °F 36.9 °F 44.6 °F 100% 29.71 in 3.7 mi North 18.4 mph - N/A Rain Light Rain Showers
9:50 PM 44.6 °F 36.4 °F 44.6 °F 100% 29.71 in 3.7 mi NNW 20.7 mph - N/A Rain Light Rain Showers
10:20 PM 42.8 °F 33.8 °F 42.8 °F 100% 29.71 in 5.0 mi NNW 21.9 mph - N/A Rain Light Rain Showers
10:50 PM 42.8 °F 33.8 °F 42.8 °F 100% 29.71 in 5.0 mi NNW 21.9 mph - N/A Rain Light Rain Showers
11:20 PM 42.8 °F 33.1 °F 41.0 °F 93% 29.74 in 4.3 mi NNW 25.3 mph - N/A Rain Light Rain Showers
11:50 PM 42.8 °F 33.3 °F 41.0 °F 93% 29.74 in 3.7 mi NNW 24.2 mph - N/A Rain Light Rain Showers